www.pogodaiklimat.ru

Погода и климат >> Архив погоды >> Россия >> Якутия >> Екюччю


ПОГОДА в Екюччю

  • Прогноз погоды в Екюччю
  • Монитор погоды в Екюччю

АРХИВ ПОГОДЫ в Екюччю

Время (UTC), дата Ветер
(напр.,м/с)
 
Видим.   Явления Облачность Т
(С)
Тd
(С)
f
(%)
Тe
(С)
Тes
(С)
Комфортность P
(гПа)
Po
(гПа)
Тmin
(С)
Tmax
(С)
R
(мм)
R24
(мм)
S
(см)
12 16.05 С 7 50 км 10/0
[Ac trans Cs]
+2.7 -8.4 44 -3 -3 1014.7 989.9
15 16.05 СВ 4 50 км 8/0
[Ac trans Cs]
-2.0 -11.0 50 -7 -7 1017.2 992.0
18 16.05 С 3 50 км 10/0
[Ac As]
-3.1 -10.8 55 -8 -8 1018.4 992.9
21 16.05 С 6 50 км 10/0
[Ac As]
-4.0 -9.8 64 -11 -11 1019.5 993.9 -4.0
00 17.05 СВ 6 50 км 10/10 1000 м
[Sc]
-2.2 -11.3 50 -9 -9 1019.3 993.9
03 17.05 С 2 50 км 10/10
[Sc]
-2.2 -8.9 60 -6 -6 1017.9 992.5
06 17.05 СВ 2 50 км 10/10 1000 м
[Sc]
-0.9 -8.7 55 -4 -4 1017.1 992.0
09 17.05 СВ 4 50 км 10/10 1000 м
[Sc]
-1.1 -9.4 53 -6 -6 1018.0 992.7 0.0
12 17.05 В 4 50 км 10/10 1000 м
[Sc]
-2.2 -9.4 58 -8 -8 1019.2 993.8
15 17.05 В 5 50 км 10/10 1000 м
[Sc]
-4.6 -11.7 58 -11 -11 1020.8 995.1
18 17.05 В 5 50 км 10/10 1000 м
[Sc]
-5.7 -11.9 62 -13 -13 1021.6 995.8
21 17.05 С 4 20 км слаб. снег 10/10 1000 м
[Sc]
-6.5 -12.0 65 -13 -13 1022.3 996.5 -7.9 0.0
00 18.05 С 3 20 км слаб. снег 10/10 1000 м
[Sc]
-6.8 -11.5 69 -12 -12 1023.3 997.4
03 18.05 С 4 10 км снег 10/10 1000 м
[Sc]
-6.3 -12.2 63 -13 -13 1022.2 996.4
06 18.05 С 3 50 км {снег} 10/10 1000 м
[Sc]
-4.5 -11.0 60 -9 -9 1021.2 995.6
09 18.05 СВ 4 50 км 10/10 1000 м
[Sc]
-2.6 -11.0 52 -8 -8 1020.4 995.0 -2.6 0.4
12 18.05 С 3 50 км 10/5 1000 м
[Sc As op]
-4.0 -10.8 59 -9 -9 1020.7 995.1
15 18.05 С 3 50 км 10/10 1000 м
[Sc]
-6.1 -11.9 63 -11 -11 1021.3 995.5
18 18.05 С 2 50 км 10/10 1000 м
[Sc]
-7.8 -12.8 67 -12 -12 1021.5 995.5
21 18.05 С 4 50 км 10/10 1000 м
[Sc]
-7.7 -13.8 62 -14 -14 1020.7 994.7 -8.2
00 19.05 С 5 50 км 9/9 1000 м
[Sc]
-7.5 -14.6 57 -15 -14 1019.8 993.9
03 19.05 СВ 5 50 км 8/8 1000 м
[Sc]
-4.9 -13.8 50 -11 -10 1017.8 992.3
06 19.05 ЮВ 5 50 км 8/8 600 м
[Cu med, cong]
-0.5 -11.4 43 -6 -5 1016.0 990.9
09 19.05 С 6 50 км 6/0 600 м
[As trans]
+0.1 -11.8 40 -6 -5 1015.6 990.5 +0.7
12 19.05 С 2 50 км ясно -1.6 -12.9 42 -5 -5 1016.0 990.9
15 19.05 штиль 0 50 км ясно -9.2 -17.3 52 -9 -9 1017.2 991.3
18 19.05 штиль 0 50 км ясно -12.7 -16.2 75 -13 -13 1018.0 991.7
21 19.05 штиль 0 50 км ясно -12.4 -15.9 75 -12 -10 1017.9 991.7 -13.3
00 20.05 В 2 50 км 5/0
[Cs]
-2.6 -12.5 46 -6 +1 1014.7 989.5
03 20.05 В 2 50 км 9/0
[Cs]
+2.1 -11.7 35 -0 +9 1012.7 987.8
06 20.05 ЮВ 2 50 км 8/1 600 м
[Cu hum Cs]
+5.2 -11.2 29 +4 +10 1011.1 986.7
09 20.05 СВ 1 50 км 6/3 600 м
[Cu hum Ci fib]
+6.8 -8.9 32 +7 +9 1010.6 986.3 +7.3
12 20.05 Ю 2 50 км 9/3 1000 м
[Sc Cs]
+4.3 -10.2 34 +3 +3 1011.2 986.7
15 20.05 З 2 50 км 10/1 1000 м
[Sc diur, vesp Cs]
-2.3 -11.5 49 -6 -6 1012.3 987.2
18 20.05 штиль 0 50 км 10/0
[Cs]
-4.5 -10.6 62 -5 -5 1013.0 987.6
21 20.05 ЮЗ 2 50 км 10/0
[As op Ci fib]
-2.0 -8.6 61 -5 -4 1014.7 989.5 -5.0
00 21.05 В 2 50 км 4/1 600 м
[Cu hum Ci fib]
+5.6 -6.8 40 +4 +10 1014.0 989.5
03 21.05 В 2 50 км 6/6 600 м
[Cu med, cong]
+8.0 -9.1 29 +7 +11 1013.7 988.7
06 21.05 Ю 3 50 км 6/6 600 м
[Cu med, cong]
+9.1 -9.4 26 +8 +10 1012.5 988.2
09 21.05 штиль 0 50 км 8/8 600 м
[Cu hum Ci fib]
+11.0 -10.4 21 +11 +12 1012.2 988.0
12 21.05 В 2 50 км 10/0
[Ci ing]
+9.4 -10.7 23 +9 +9 1012.1 987.9
15 21.05 ЮЗ 2 50 км ясно -2.6 -13.7 42 -6 -6 1013.1 987.9
18 21.05 штиль 0 50 км ясно -5.2 -12.2 58 -6 -6 1013.1 987.6
21 21.05 штиль 0 50 км ясно -2.1 -9.2 58 -3 0 1013.0 987.8 -5.6
00 22.05 СВ 3 50 км 4/0
[Ci fib]
+8.8 -9.0 27 +7 +13 1009.1 985.0
03 22.05 Ю 3 50 км 3/0
[Ci fib]
+13.6 -8.8 20 +13 +21 1005.7 982.1
06 22.05 Ю 1 50 км 6/0
[Ci fib]
+16.2 -10.9 14 +17 +26 1002.0 978.7
09 22.05 СВ 3 50 км 8/0
[Cs]
+16.7 -6.5 20 +17 +19 999.4 976.2 +17.5
12 22.05 СВ 3 50 км 9/0
[Cs]
+16.1 -6.9 20 +16 +16 997.8 974.6
15 22.05 С 3 50 км 4/0
[Ac trans Ci fib]
+6.7 -8.6 33 +5 +5 997.7 973.6
18 22.05 С 2 50 км 5/3
[Sc Ac trans Ci fib]
+1.2 -9.0 47 -1 -1 997.5 973.0
21 22.05 штиль 0 50 км 8/0
[Ac trans Ci fib]
+4.1 -5.3 50 +4 +6 997.1 972.9 +0.6
00 23.05 СВ 3 50 км 1/0
[Ci fib]
+12.7 -4.3 30 +12 +18 995.0 971.6
03 23.05 В 4 50 км 1/1 600 м
[Cu med, cong]
+15.9 -5.9 22 +15 +22 994.3 971.1
06 23.05 Ю 4 50 км 3/3 600 м
[Cu med, cong]
+17.8 -3.4 23 +18 +22 993.7 970.7

 

Местоположение метеостанции Екюччю (Якутия, Россия): широта 66.77 долгота 131.60 высота над уровнем моря 200 м.

В архиве по умолчанию представлена погода в Екюччю за последнюю неделю. Архивные данные за месяц целиком и за предыдущие месяцы, начиная с января 2011 года, Вы можете получить, выбрав интересующий диапазон дат из раскрывающегося списка и нажав кнопку "Ввод!".


*Определитесь, кто Вы:
робот инопланетянин человек

Внимание! Время в таблицах - всемирное. Для получения местного времени необходимо прибавить поправку, которая равна 10 ч.

Смотрите также архив погоды в соседних городах и на ближайших метеорологических станциях:

Погода в Верхоянске (Якутия, Россия) (118 км)
Погода в Батагай-Алыте (Якутия, Россия) (124 км)
Погода в Батагае (Якутия, Россия) (162 км)
Погода в Себян-Кюеле (Якутия, Россия) (179 км)
Погода в Усть-Чарках (Якутия, Россия) (219 км)
Погода в Иэме (Якутия, Россия) (250 км)
Погода в Сеген-Кюеле (Якутия, Россия) (314 км)
Погода в Жиганске (Якутия, Россия) (364 км)
Погода в Сого-Хае (Якутия, Россия) (366 км)
Погода в Сангаре (Якутия, Россия) (369 км)

Пояснения к столбцам:

Ветер - указаны скорость ветра в м/с - средняя за 10 мин, порывы в срок и между сроками (в фигурных скобках) и направление, откуда дует ветер: С - северный, СВ - северо-восточный, В - восточный, ЮВ - юго-восточный, Ю - южный, ЮЗ - юго-западный, З - западный, СЗ - северо-западный.
Видимость - горизонтальная дальность видимости в метрах или километрах. При видимости от 1 до 10 км при отсутствии осадков обычно наблюдается дымка, при ухудшении видимости до 1 км и менее - туман. В сухую погоду видимость может ухудшаться дымом, пылью или мглою.
Явления - указаны атмосферные явления, наблюдавшиеся в срок или в последний час перед сроком; фигурными скобками обозначены явления, наблюдавшиеся между сроками (за 1-3 часа до срока); квадратными скобками обозначены град или гололедные отложения с указанием их диаметра в мм.
Облачность - указаны через наклонную черту общая и нижняя облачность в баллах и высота нижней границы облаков в метрах; квадратными скобками обозначены формы облаков: Ci - перистые, Cs - перисто-слоистые, Cc - перисто-кучевые, Ac - высококучевые, As - высокослоистые, Sc - слоисто-кучевые, Ns - слоисто-дождевые, Cu - кучевые, Cb - кучево-дождевые. Подробнее классификацию облаков см. в Атласе облаков (PDF).
T - Температура воздуха - температура, измеренная на высоте 2 м над землей.
Td - Температура точки росы - температура, при понижении до которой содержащийся в воздухе водяной пар достигнет насыщения.
f - Относительная влажность воздуха - влажноcть воздуха, измеренная на высоте 2 м над землей.
Te - Эффективная температура - температура, которую ощущает одетый по сезону человек в тени. Характеристика душности погоды. При расчете учитывается влияние влажности воздуха и скорости ветра на теплоощущения человека.
Tes - Эффективная температура на солнце - температура, которую ощущает человек, с поправкой на солнечный нагрев. Характеристика знойности погоды. Зависит от высоты солнца над горизонтом, облачности и скорости ветра. Ночью, в пасмурную погоду, а также при ветре 12 м/с и более поправка равна нулю.
P - Атмосферное давление - приведенное к уровню моря атмосферное давление.
Po - Атмосферное давление - измеренное на уровне метеостанции атмосферное давление.
Tmin - Минимальная температура - минимум температуры воздуха на высоте 2 м над землей.
Tmax - Максимальная температура - максимум температуры воздуха на высоте 2 м над землей.
R - Количество осадков - Количество выпавших осадков за период времени, мм. При наведении курсора мыши на число - период времени, за который выпало указанное количество осадков.
R24 - Количество осадков - Количество выпавших осадков за 24 часа, мм.
S - Снежный покров - Высота снежного покрова, см. При наведении курсора мыши на число - состояние снежного покрова и степень покрытия местности в баллах.